Location: Stara Lesna
(49.1528°N, 20.2911°E)
Time: 20:50:38
(UTC+02:00)

Unknown - Pass Details

Date: 21 September 2019
Orbit: 548 x 551 km, 53.0° (Epoch: 23 October)

Event Time Altitude Azimuth Distance (km) Brightness Sun altitude
Exits shadow 03:38:55 45° 99° (E) 755 4.5 -25.9°
Drops below altitude 10° 03:42:05 10° 70° (ENE) 1,828 7.2 -25.5°
Sets 03:44:20 0° 66° (ENE) 2,725 8.5 -25.2°
